Time,TemperatureF,DewpointF,PressureIn,WindDirection,WindDirectionDegrees,WindSpeedMPH,WindSpeedGustMPH,Humidity,HourlyPrecipIn,Conditions,Clouds,dailyrainin,SoftwareType,DateUTC
2013-05-31 00:01:00,61.0,56.0,-100.00,South,171,1.0,2.0,84,-99.99,,,-99.99,,2013-05-31 07:01:00,
2013-05-31 00:11:00,61.0,56.0,-100.00,SSE,163,0.0,2.0,83,-99.99,,,-99.99,,2013-05-31 07:11:00,
2013-05-31 00:21:00,61.0,56.0,-100.00,SSE,156,0.0,1.0,83,-99.99,,,-99.99,,2013-05-31 07:21:00,
2013-05-31 00:32:00,61.0,56.0,-100.00,SE,132,1.0,2.0,85,-99.99,,,-99.99,,2013-05-31 07:32:00,
2013-05-31 00:41:00,61.0,56.0,-100.00,ESE,108,1.0,3.0,84,-99.99,,,-99.99,,2013-05-31 07:41:00,
2013-05-31 00:52:00,61.0,56.0,-100.00,ESE,109,2.0,4.0,84,-99.99,,,-99.99,,2013-05-31 07:52:00,
2013-05-31 01:01:00,61.0,56.0,-100.00,ESE,105,2.0,4.0,85,-99.99,,,-99.99,,2013-05-31 08:01:00,
2013-05-31 01:11:00,61.0,56.0,-100.00,East,95,2.0,3.0,84,-99.99,,,-99.99,,2013-05-31 08:11:00,
2013-05-31 01:21:00,61.0,56.0,-100.00,East,95,1.0,3.0,84,-99.99,,,-99.99,,2013-05-31 08:21:00,
2013-05-31 01:31:00,61.0,56.0,-100.00,East,87,1.0,3.0,84,-99.99,,,-99.99,,2013-05-31 08:31:00,
2013-05-31 01:41:00,61.0,56.0,-100.00,East,81,2.0,4.0,83,-99.99,,,-99.99,,2013-05-31 08:41:00,
2013-05-31 01:51:00,61.0,56.0,-100.00,ENE,73,2.0,5.0,83,-99.99,,,-99.99,,2013-05-31 08:51:00,
2013-05-31 02:01:00,61.0,56.0,-100.00,ENE,73,2.0,4.0,83,-99.99,,,-99.99,,2013-05-31 09:01:00,
2013-05-31 02:11:00,61.0,56.0,-100.00,ENE,61,2.0,5.0,83,-99.99,,,-99.99,,2013-05-31 09:11:00,
2013-05-31 02:21:00,61.0,56.0,-100.00,NE,49,2.0,5.0,83,-99.99,,,-99.99,,2013-05-31 09:21:00,
2013-05-31 02:32:00,61.0,55.0,-100.00,NE,51,2.0,5.0,82,-99.99,,,-99.99,,2013-05-31 09:32:00,
2013-05-31 02:43:00,61.0,55.0,-100.00,ENE,71,2.0,5.0,82,-99.99,,,-99.99,,2013-05-31 09:43:00,
2013-05-31 02:53:00,61.0,55.0,-100.00,ENE,66,2.0,5.0,81,-99.99,,,-99.99,,2013-05-31 09:53:00,
2013-05-31 03:02:00,61.0,55.0,-100.00,ENE,59,3.0,5.0,81,-99.99,,,-99.99,,2013-05-31 10:02:00,
2013-05-31 03:12:00,61.0,55.0,-100.00,ENE,66,2.0,5.0,81,-99.99,,,-99.99,,2013-05-31 10:12:00,
2013-05-31 03:22:00,61.0,55.0,-100.00,ENE,62,2.0,5.0,81,-99.99,,,-99.99,,2013-05-31 10:22:00,
2013-05-31 03:32:00,61.0,55.0,-100.00,NE,46,2.0,4.0,81,-99.99,,,-99.99,,2013-05-31 10:32:00,
2013-05-31 03:42:00,61.0,55.0,-100.00,ENE,60,2.0,5.0,81,-99.99,,,-99.99,,2013-05-31 10:42:00,
2013-05-31 03:52:00,61.0,55.0,-100.00,NE,56,2.0,4.0,81,-99.99,,,-99.99,,2013-05-31 10:52:00,
2013-05-31 04:01:00,61.0,55.0,-100.00,ENE,67,2.0,4.0,81,-99.99,,,-99.99,,2013-05-31 11:01:00,
2013-05-31 04:11:00,61.0,55.0,-100.00,ENE,76,2.0,4.0,81,-99.99,,,-99.99,,2013-05-31 11:11:00,
2013-05-31 04:22:00,61.0,55.0,-100.00,East,81,3.0,5.0,81,-99.99,,,-99.99,,2013-05-31 11:22:00,
2013-05-31 04:32:00,61.0,55.0,-100.00,ENE,64,2.0,5.0,82,-99.99,,,-99.99,,2013-05-31 11:32:00,
2013-05-31 04:41:00,60.0,54.0,-100.00,ENE,64,3.0,5.0,82,-99.99,,,-99.99,,2013-05-31 11:41:00,
2013-05-31 04:52:00,60.0,55.0,-100.00,ENE,62,3.0,6.0,83,-99.99,,,-99.99,,2013-05-31 11:52:00,
2013-05-31 05:01:00,60.0,55.0,-100.00,ENE,67,2.0,5.0,83,-99.99,,,-99.99,,2013-05-31 12:01:00,
2013-05-31 05:11:00,60.0,55.0,-100.00,East,84,2.0,4.0,83,-99.99,,,-99.99,,2013-05-31 12:11:00,
2013-05-31 05:21:00,60.0,55.0,-100.00,ENE,76,2.0,5.0,84,-99.99,,,-99.99,,2013-05-31 12:21:00,
2013-05-31 05:31:00,60.0,55.0,-100.00,ENE,70,2.0,4.0,84,-99.99,,,-99.99,,2013-05-31 12:31:00,
2013-05-31 05:41:00,60.0,55.0,-100.00,NE,54,1.0,3.0,84,-99.99,,,-99.99,,2013-05-31 12:41:00,
2013-05-31 05:51:00,60.0,55.0,-100.00,NNE,30,1.0,2.0,84,-99.99,,,-99.99,,2013-05-31 12:51:00,
2013-05-31 06:01:00,60.0,55.0,-100.00,West,277,0.0,1.0,84,-99.99,,,-99.99,,2013-05-31 13:01:00,
2013-05-31 06:11:00,60.0,55.0,-100.00,SW,232,0.0,1.0,84,-99.99,,,-99.99,,2013-05-31 13:11:00,
2013-05-31 06:21:00,60.0,55.0,-100.00,SW,223,0.0,1.0,84,-99.99,,,-99.99,,2013-05-31 13:21:00,
2013-05-31 06:32:00,60.0,55.0,-100.00,WNW,286,0.0,1.0,84,-99.99,,,-99.99,,2013-05-31 13:32:00,
2013-05-31 06:42:00,60.0,55.0,-100.00,NE,53,1.0,1.0,83,-99.99,,,-99.99,,2013-05-31 13:42:00,
2013-05-31 06:52:00,60.0,55.0,-100.00,NE,53,1.0,1.0,83,-99.99,,,-99.99,,2013-05-31 13:52:00,
2013-05-31 07:02:00,60.0,55.0,-100.00,ENE,57,2.0,5.0,83,-99.99,,,-99.99,,2013-05-31 14:02:00,
2013-05-31 07:11:00,60.0,55.0,-100.00,ENE,67,3.0,6.0,83,-99.99,,,-99.99,,2013-05-31 14:11:00,
2013-05-31 07:21:00,60.0,55.0,-100.00,ENE,58,1.0,4.0,83,-99.99,,,-99.99,,2013-05-31 14:21:00,
2013-05-31 07:31:00,60.0,55.0,-100.00,ENE,62,2.0,4.0,83,-99.99,,,-99.99,,2013-05-31 14:31:00,
2013-05-31 07:41:00,60.0,55.0,-100.00,ENE,67,2.0,5.0,83,-99.99,,,-99.99,,2013-05-31 14:41:00,
2013-05-31 07:52:00,60.0,55.0,-100.00,ENE,76,2.0,5.0,83,-99.99,,,-99.99,,2013-05-31 14:52:00,
2013-05-31 08:01:00,60.0,55.0,-100.00,East,81,2.0,4.0,83,-99.99,,,-99.99,,2013-05-31 15:01:00,
2013-05-31 08:11:00,60.0,55.0,-100.00,East,84,1.0,2.0,83,-99.99,,,-99.99,,2013-05-31 15:11:00,
2013-05-31 08:21:00,61.0,55.0,-100.00,WSW,251,1.0,2.0,82,-99.99,,,-99.99,,2013-05-31 15:21:00,
2013-05-31 08:33:00,61.0,55.0,-100.00,West,273,1.0,2.0,80,-99.99,,,-99.99,,2013-05-31 15:33:00,
2013-05-31 08:42:00,62.0,55.0,-100.00,SW,233,1.0,3.0,79,-99.99,,,-99.99,,2013-05-31 15:42:00,
2013-05-31 08:53:00,62.0,56.0,-100.00,SSW,206,1.0,2.0,80,-99.99,,,-99.99,,2013-05-31 15:53:00,
2013-05-31 09:03:00,62.0,55.0,-100.00,SSE,164,1.0,3.0,79,-99.99,,,-99.99,,2013-05-31 16:03:00,
2013-05-31 09:12:00,62.0,55.0,-100.00,WSW,238,2.0,4.0,78,-99.99,,,-99.99,,2013-05-31 16:12:00,
2013-05-31 09:22:00,63.0,56.0,-100.00,WSW,254,1.0,5.0,78,-99.99,,,-99.99,,2013-05-31 16:22:00,
2013-05-31 09:33:00,63.0,56.0,-100.00,WSW,254,1.0,4.0,77,-99.99,,,-99.99,,2013-05-31 16:33:00,
2013-05-31 09:41:00,63.0,55.0,-100.00,East,95,1.0,6.0,76,-99.99,,,-99.99,,2013-05-31 16:41:00,
2013-05-31 09:52:00,64.0,56.0,-100.00,ENE,63,1.0,3.0,74,-99.99,,,-99.99,,2013-05-31 16:52:00,
2013-05-31 10:02:00,65.0,56.0,-100.00,ESE,102,1.0,4.0,72,-99.99,,,-99.99,,2013-05-31 17:02:00,
2013-05-31 10:12:00,66.0,56.0,-100.00,SW,221,2.0,6.0,69,-99.99,,,-99.99,,2013-05-31 17:12:00,
2013-05-31 10:22:00,66.0,56.0,-100.00,SSE,163,2.0,7.0,69,-99.99,,,-99.99,,2013-05-31 17:22:00,
2013-05-31 10:31:00,68.0,56.0,-100.00,WSW,254,2.0,8.0,65,-99.99,,,-99.99,,2013-05-31 17:31:00,
2013-05-31 10:42:00,69.0,57.0,-100.00,SSW,194,2.0,7.0,65,-99.99,,,-99.99,,2013-05-31 17:42:00,
2013-05-31 10:52:00,70.0,56.0,-100.00,WSW,255,4.0,8.0,62,-99.99,,,-99.99,,2013-05-31 17:52:00,
2013-05-31 11:01:00,70.0,56.0,-100.00,SW,221,3.0,8.0,62,-99.99,,,-99.99,,2013-05-31 18:01:00,
2013-05-31 11:11:00,71.0,57.0,-100.00,SW,214,2.0,7.0,61,-99.99,,,-99.99,,2013-05-31 18:11:00,
2013-05-31 11:21:00,72.0,56.0,-100.00,West,272,4.0,9.0,57,-99.99,,,-99.99,,2013-05-31 18:21:00,
2013-05-31 11:31:00,71.0,56.0,-100.00,WSW,250,3.0,7.0,59,-99.99,,,-99.99,,2013-05-31 18:31:00,
2013-05-31 11:41:00,73.0,56.0,-100.00,WSW,240,3.0,7.0,56,-99.99,,,-99.99,,2013-05-31 18:41:00,
2013-05-31 11:52:00,73.0,56.0,-100.00,SSW,210,3.0,7.0,56,-99.99,,,-99.99,,2013-05-31 18:52:00,
2013-05-31 12:01:00,74.0,56.0,-100.00,SSW,193,3.0,10.0,54,-99.99,,,-99.99,,2013-05-31 19:01:00,
2013-05-31 12:11:00,75.0,56.0,-100.00,SSW,207,3.0,8.0,52,-99.99,,,-99.99,,2013-05-31 19:11:00,
2013-05-31 12:21:00,75.0,56.0,-100.00,SSW,196,3.0,7.0,51,-99.99,,,-99.99,,2013-05-31 19:21:00,
2013-05-31 12:31:00,76.0,55.0,-100.00,WSW,237,3.0,8.0,49,-99.99,,,-99.99,,2013-05-31 19:31:00,
2013-05-31 12:41:00,77.0,56.0,-100.00,SW,236,5.0,11.0,48,-99.99,,,-99.99,,2013-05-31 19:41:00,
2013-05-31 12:52:00,76.0,56.0,-100.00,WSW,249,6.0,12.0,50,-99.99,,,-99.99,,2013-05-31 19:52:00,
2013-05-31 13:01:00,76.0,56.0,-100.00,WSW,238,6.0,12.0,50,-99.99,,,-99.99,,2013-05-31 20:01:00,
2013-05-31 13:11:00,76.0,56.0,-100.00,SW,232,6.0,10.0,50,-99.99,,,-99.99,,2013-05-31 20:11:00,
2013-05-31 13:22:00,76.0,56.0,-100.00,SW,232,6.0,10.0,50,-99.99,,,-99.99,,2013-05-31 20:22:00,
2013-05-31 13:31:00,77.0,57.0,-100.00,SW,230,4.0,9.0,50,-99.99,,,-99.99,,2013-05-31 20:31:00,
2013-05-31 13:41:00,76.0,57.0,-100.00,WSW,245,5.0,10.0,51,-99.99,,,-99.99,,2013-05-31 20:41:00,
2013-05-31 13:51:00,76.0,57.0,-100.00,SW,228,4.0,10.0,51,-99.99,,,-99.99,,2013-05-31 20:51:00,
2013-05-31 14:01:00,78.0,57.0,-100.00,WSW,239,5.0,11.0,49,-99.99,,,-99.99,,2013-05-31 21:01:00,
2013-05-31 14:11:00,78.0,57.0,-100.00,WSW,244,4.0,9.0,48,-99.99,,,-99.99,,2013-05-31 21:11:00,
2013-05-31 14:22:00,78.0,57.0,-100.00,WSW,255,6.0,12.0,48,-99.99,,,-99.99,,2013-05-31 21:22:00,
2013-05-31 14:32:00,78.0,57.0,-100.00,WSW,242,4.0,9.0,48,-99.99,,,-99.99,,2013-05-31 21:32:00,
2013-05-31 14:42:00,78.0,57.0,-100.00,WSW,242,4.0,9.0,48,-99.99,,,-99.99,,2013-05-31 21:42:00,
2013-05-31 14:53:00,79.0,57.0,-100.00,SW,229,4.0,9.0,47,-99.99,,,-99.99,,2013-05-31 21:53:00,
2013-05-31 15:02:00,80.0,57.0,-100.00,SW,228,4.0,10.0,46,-99.99,,,-99.99,,2013-05-31 22:02:00,
2013-05-31 15:12:00,79.0,57.0,-100.00,WSW,246,5.0,12.0,47,-99.99,,,-99.99,,2013-05-31 22:12:00,
2013-05-31 15:22:00,79.0,57.0,-100.00,WSW,247,4.0,10.0,47,-99.99,,,-99.99,,2013-05-31 22:22:00,
2013-05-31 15:33:00,80.0,57.0,-100.00,SW,236,5.0,9.0,46,-99.99,,,-99.99,,2013-05-31 22:33:00,
2013-05-31 15:41:00,79.0,57.0,-100.00,WSW,242,5.0,10.0,47,-99.99,,,-99.99,,2013-05-31 22:41:00,
2013-05-31 15:52:00,79.0,57.0,-100.00,SW,234,6.0,10.0,47,-99.99,,,-99.99,,2013-05-31 22:52:00,
2013-05-31 16:02:00,78.0,57.0,-100.00,SW,233,5.0,10.0,48,-99.99,,,-99.99,,2013-05-31 23:02:00,
2013-05-31 16:12:00,78.0,57.0,-100.00,SW,232,4.0,9.0,49,-99.99,,,-99.99,,2013-05-31 23:12:00,
2013-05-31 16:21:00,77.0,56.0,-100.00,WSW,239,5.0,8.0,49,-99.99,,,-99.99,,2013-05-31 23:21:00,
2013-05-31 16:32:00,77.0,57.0,-100.00,WSW,249,5.0,9.0,51,-99.99,,,-99.99,,2013-05-31 23:32:00,
2013-05-31 16:42:00,77.0,57.0,-100.00,WSW,238,4.0,8.0,51,-99.99,,,-99.99,,2013-05-31 23:42:00,
2013-05-31 16:52:00,77.0,57.0,-100.00,WSW,238,4.0,8.0,51,-99.99,,,-99.99,,2013-05-31 23:52:00,
2013-05-31 17:01:00,77.0,57.0,-100.00,WSW,247,4.0,8.0,50,-99.99,,,-99.99,,2013-06-01 00:01:00,
2013-05-31 17:11:00,77.0,57.0,-100.00,WSW,253,4.0,7.0,50,-99.99,,,-99.99,,2013-06-01 00:11:00,
2013-05-31 17:21:00,77.0,57.0,-100.00,SW,224,3.0,8.0,51,-99.99,,,-99.99,,2013-06-01 00:21:00,
2013-05-31 17:31:00,77.0,57.0,-100.00,WSW,237,4.0,8.0,51,-99.99,,,-99.99,,2013-06-01 00:31:00,
2013-05-31 17:42:00,77.0,57.0,-100.00,WSW,241,5.0,9.0,50,-99.99,,,-99.99,,2013-06-01 00:42:00,
2013-05-31 17:51:00,76.0,57.0,-100.00,SW,236,4.0,8.0,52,-99.99,,,-99.99,,2013-06-01 00:51:00,
2013-05-31 18:01:00,75.0,57.0,-100.00,SW,236,5.0,9.0,54,-99.99,,,-99.99,,2013-06-01 01:01:00,
2013-05-31 18:11:00,74.0,57.0,-100.00,WSW,245,5.0,10.0,56,-99.99,,,-99.99,,2013-06-01 01:11:00,
2013-05-31 18:21:00,73.0,57.0,-100.00,WSW,243,5.0,10.0,58,-99.99,,,-99.99,,2013-06-01 01:21:00,
2013-05-31 18:31:00,72.0,57.0,-100.00,SW,235,4.0,8.0,60,-99.99,,,-99.99,,2013-06-01 01:31:00,
2013-05-31 18:42:00,72.0,57.0,-100.00,SW,230,3.0,8.0,60,-99.99,,,-99.99,,2013-06-01 01:42:00,
2013-05-31 18:52:00,72.0,58.0,-100.00,WSW,237,3.0,6.0,62,-99.99,,,-99.99,,2013-06-01 01:52:00,
2013-05-31 19:01:00,71.0,58.0,-100.00,SW,221,3.0,6.0,63,-99.99,,,-99.99,,2013-06-01 02:01:00,
2013-05-31 19:11:00,71.0,58.0,-100.00,SSW,199,2.0,6.0,63,-99.99,,,-99.99,,2013-06-01 02:11:00,
2013-05-31 19:21:00,70.0,58.0,-100.00,SSW,202,2.0,7.0,66,-99.99,,,-99.99,,2013-06-01 02:21:00,
2013-05-31 19:31:00,69.0,58.0,-100.00,South,191,2.0,4.0,67,-99.99,,,-99.99,,2013-06-01 02:31:00,
2013-05-31 19:42:00,68.0,57.0,-100.00,SSW,207,2.0,5.0,69,-99.99,,,-99.99,,2013-06-01 02:42:00,
2013-05-31 19:51:00,67.0,57.0,-100.00,SW,214,2.0,4.0,71,-99.99,,,-99.99,,2013-06-01 02:51:00,
2013-05-31 20:01:00,66.0,57.0,-100.00,SSW,208,2.0,6.0,73,-99.99,,,-99.99,,2013-06-01 03:01:00,
2013-05-31 20:11:00,66.0,57.0,-100.00,SSW,196,1.0,5.0,74,-99.99,,,-99.99,,2013-06-01 03:11:00,
2013-05-31 20:21:00,65.0,57.0,-100.00,South,178,1.0,5.0,75,-99.99,,,-99.99,,2013-06-01 03:21:00,
2013-05-31 20:33:00,65.0,57.0,-100.00,SSW,206,1.0,4.0,76,-99.99,,,-99.99,,2013-06-01 03:33:00,
2013-05-31 20:43:00,65.0,58.0,-100.00,SW,214,1.0,4.0,77,-99.99,,,-99.99,,2013-06-01 03:43:00,
2013-05-31 20:53:00,64.0,57.0,-100.00,SSW,213,1.0,3.0,79,-99.99,,,-99.99,,2013-06-01 03:53:00,
2013-05-31 21:02:00,64.0,57.0,-100.00,SW,216,1.0,3.0,79,-99.99,,,-99.99,,2013-06-01 04:02:00,
2013-05-31 21:12:00,64.0,57.0,-100.00,SSE,168,0.0,1.0,79,-99.99,,,-99.99,,2013-06-01 04:12:00,
2013-05-31 21:22:00,64.0,57.0,-100.00,SSE,157,0.0,1.0,78,-99.99,,,-99.99,,2013-06-01 04:22:00,
2013-05-31 21:33:00,63.0,56.0,-100.00,SE,144,1.0,2.0,79,-99.99,,,-99.99,,2013-06-01 04:33:00,
2013-05-31 21:42:00,62.0,56.0,-100.00,ESE,117,1.0,2.0,80,-99.99,,,-99.99,,2013-06-01 04:42:00,
2013-05-31 21:53:00,62.0,56.0,-100.00,SE,128,1.0,2.0,81,-99.99,,,-99.99,,2013-06-01 04:53:00,
2013-05-31 22:02:00,62.0,56.0,-100.00,ESE,120,1.0,2.0,81,-99.99,,,-99.99,,2013-06-01 05:02:00,
2013-05-31 22:12:00,62.0,56.0,-100.00,ESE,115,1.0,2.0,82,-99.99,,,-99.99,,2013-06-01 05:12:00,
2013-05-31 22:22:00,62.0,56.0,-100.00,SE,134,1.0,3.0,82,-99.99,,,-99.99,,2013-06-01 05:22:00,
2013-05-31 22:32:00,61.0,55.0,-100.00,SSW,203,0.0,1.0,82,-99.99,,,-99.99,,2013-06-01 05:32:00,
2013-05-31 22:42:00,61.0,56.0,-100.00,SSE,151,0.0,1.0,83,-99.99,,,-99.99,,2013-06-01 05:42:00,
2013-05-31 22:52:00,61.0,56.0,-100.00,South,173,0.0,1.0,83,-99.99,,,-99.99,,2013-06-01 05:52:00,
2013-05-31 23:01:00,61.0,56.0,-100.00,South,170,0.0,1.0,84,-99.99,,,-99.99,,2013-06-01 06:01:00,
2013-05-31 23:12:00,61.0,56.0,-100.00,SSW,205,0.0,1.0,84,-99.99,,,-99.99,,2013-06-01 06:12:00,
2013-05-31 23:22:00,61.0,56.0,-100.00,South,169,0.0,1.0,84,-99.99,,,-99.99,,2013-06-01 06:22:00,
2013-05-31 23:32:00,60.0,55.0,-100.00,South,169,0.0,1.0,84,-99.99,,,-99.99,,2013-06-01 06:32:00,
2013-05-31 23:41:00,60.0,55.0,-100.00,ESE,110,0.0,1.0,84,-99.99,,,-99.99,,2013-06-01 06:41:00,
2013-05-31 23:51:00,60.0,56.0,-100.00,NE,49,0.0,1.0,86,-99.99,,,-99.99,,2013-06-01 06:51:00,